Weather History for Chillicothe, MO

Change the Weather History Date:

Sunday, August 18, 2013

  Actual Average (KIRK) Record (KIRK)
Temperature  
Mean Temperature 68 °F 74 °F  
Max Temperature 82 °F 85 °F 106 °F (1936)
Min Temperature 54 °F 63 °F 46 °F (2012)
Degree Days  
Heating Degree Days 0 0  
Month to date heating degree days 0  
Since 1 June heating degree days 17  
Since 1 July heating degree days 1  
Cooling Degree Days 3 9  
Month to date cooling degree days 177  
Year to date cooling degree days 744  
Since 1 June cooling degree days 682  
Growing Degree Days 18 (Base 50)    
Moisture  
Dew Point 57 °F    
Average Humidity 69    
Maximum Humidity 90    
Minimum Humidity 44    
Precipitation  
Precipitation 0.00 in 0.12 in 4.53 in (1970)
Month to date precipitation 2.05  
Year to date precipitation 25.64  
Sea Level Pressure  
Sea Level Pressure 30.13 in    
Wind  
Wind Speed 1 mph (South)    
Max Wind Speed 6 mph    
Max Gust Speed -    
T = Trace of Precipitation, MM = Missing Value Source: NWS Daily Summary

Daily Weather History Graph

Daily Weather History Graph

Search for Another Location

Airport:

Trip Planner

Search our weather history database for the weather conditions in past years. The results will help you decide how hot, cold, wet, or windy it might be!

Date:

Astronomy

Aug. 18, 2013 Rise Set
Actual Time 6:29 AM CDT 8:06 PM CDT
Civil Twilight 6:00 AM CDT 8:34 PM CDT
Nautical Twilight 5:26 AM CDT 9:09 PM CDT
Astronomical Twilight 4:49 AM CDT 9:45 PM CDT
Moon 6:12 PM CDT 3:39 AM CDT
Length of Visible Light 14h 34m
Length of Day
13h 36m
Waxing Gibbous, 92% of the Moon is Illuminated
Aug 18
Waxing Gibbous
Aug 20
Full
Aug 28
Last Quarter
Sep 5
New
Sep 12
First Quarter

Hourly Weather History & Observations

Time (CDT) Temp. Heat Index Dew Point Humidity Pressure Visibility Wind Dir Wind Speed Gust Speed Precip Events Conditions
12:52 AM 59.0 °F - 54.0 °F 83% 30.14 in - Calm Calm - N/A   Unknown
1:52 AM 57.0 °F - 53.1 °F 87% 30.14 in - Calm Calm - N/A   Unknown
2:52 AM 57.0 °F - 53.1 °F 87% 30.14 in - Calm Calm - N/A   Unknown
3:52 AM 55.9 °F - 52.0 °F 87% 30.14 in - Calm Calm - N/A   Unknown
4:52 AM 55.0 °F - 52.0 °F 89% 30.15 in - Calm Calm - N/A   Unknown
5:52 AM 55.0 °F - 52.0 °F 89% 30.16 in - Calm Calm - N/A   Unknown
6:52 AM 54.0 °F - 51.1 °F 90% 30.17 in - Calm Calm - N/A   Unknown
7:52 AM 60.1 °F - 55.0 °F 83% 30.18 in - Calm Calm - N/A   Unknown
8:52 AM 66.9 °F - 57.9 °F 73% 30.19 in - Calm Calm - N/A   Unknown
9:52 AM 72.0 °F - 60.1 °F 66% 30.19 in - SSE 3.5 mph - N/A   Unknown
10:52 AM 75.0 °F - 59.0 °F 57% 30.18 in - Variable 3.5 mph - N/A   Unknown
11:52 AM 78.1 °F - 59.0 °F 52% 30.16 in - South 5.8 mph - N/A   Unknown
12:52 PM 80.1 °F 80.4 °F 57.0 °F 45% 30.14 in - ESE 4.6 mph - N/A   Unknown
1:52 PM 79.0 °F - 57.9 °F 48% 30.13 in - Variable 3.5 mph - N/A   Unknown
2:52 PM 82.0 °F 82.1 °F 59.0 °F 45% 30.11 in - Variable 4.6 mph - N/A   Unknown
3:52 PM 82.0 °F 82.0 °F 57.9 °F 44% 30.09 in - South 4.6 mph - N/A   Unknown
4:52 PM 82.0 °F 82.0 °F 57.9 °F 44% 30.08 in - Variable 5.8 mph - N/A   Unknown
5:52 PM 82.0 °F 82.1 °F 59.0 °F 45% 30.08 in - South 5.8 mph - N/A   Unknown
6:52 PM 80.1 °F 81.1 °F 61.0 °F 52% 30.09 in - South 4.6 mph - N/A   Unknown
7:52 PM 75.0 °F - 62.1 °F 64% 30.08 in - Calm Calm - N/A   Unknown
8:52 PM 69.1 °F - 62.1 °F 78% 30.09 in - Calm Calm - N/A   Unknown
9:52 PM 66.0 °F - 61.0 °F 84% 30.10 in - Calm Calm - N/A   Unknown
10:52 PM 64.9 °F - 60.1 °F 84% 30.10 in - Calm Calm - N/A   Unknown
11:52 PM 63.0 °F - 59.0 °F 87% 30.11 in - Calm Calm - N/A   Unknown